Wetterdaten: Mittwoch, 26.02.2014
Datum Zeit Temperatur Luftfeuchte Luftdruck Regen Wind Richtung Richtung Taupunkt Windchill Windben
26.02.2014 00:00 -1,9 C 79 % 1014,1 hPa 0,0 l/m 0,3 km/h (0 Bft) O-NO 67 -5,0 C -2,9 C 0,0 km/h (0 Bft)
26.02.2014 00:05 -2,0 C 79 % 1014,1 hPa 0,0 l/m 0,0 km/h (0 Bft) N-NO 22 -5,1 C -2,9 C 0,0 km/h (0 Bft)
26.02.2014 00:10 -2,1 C 79 % 1014,1 hPa 0,0 l/m 0,0 km/h (0 Bft) N-NO 22 -5,2 C -2,8 C 0,0 km/h (0 Bft)
26.02.2014 00:15 -2,0 C 80 % 1014,1 hPa 0,0 l/m 0,0 km/h (0 Bft) N 360 -5,0 C -2,8 C 0,0 km/h (0 Bft)
26.02.2014 00:20 -2,1 C 79 % 1014,1 hPa 0,0 l/m 0,2 km/h (0 Bft) NO 45 -5,2 C -2,8 C 1,8 km/h (1 Bft)
26.02.2014 00:25 -2,0 C 79 % 1014,1 hPa 0,0 l/m 0,0 km/h (0 Bft) NO 45 -5,1 C -2,8 C 0,0 km/h (0 Bft)
26.02.2014 00:30 -2,2 C 79 % 1014,0 hPa 0,0 l/m 0,0 km/h (0 Bft) N 360 -5,3 C -2,8 C 0,0 km/h (0 Bft)
26.02.2014 00:35 -2,6 C 79 % 1014,0 hPa 0,0 l/m 0,0 km/h (0 Bft) NO 45 -5,7 C -2,9 C 0,0 km/h (0 Bft)
26.02.2014 00:40 -2,5 C 79 % 1014,0 hPa 0,0 l/m 0,0 km/h (0 Bft) NO 45 -5,6 C -3,0 C 0,0 km/h (0 Bft)
26.02.2014 00:45 -2,6 C 79 % 1014,0 hPa 0,0 l/m 0,0 km/h (0 Bft) NO 45 -5,7 C -3,0 C 0,0 km/h (0 Bft)
26.02.2014 00:50 -2,7 C 79 % 1014,2 hPa 0,0 l/m 0,0 km/h (0 Bft) NO 45 -5,8 C -3,1 C 0,0 km/h (0 Bft)
26.02.2014 00:55 -2,8 C 79 % 1014,2 hPa 0,0 l/m 0,0 km/h (0 Bft) NO 45 -5,9 C -3,2 C 0,0 km/h (0 Bft)
26.02.2014 01:00 -2,8 C 79 % 1014,2 hPa 0,0 l/m 0,0 km/h (0 Bft) N 360 -5,9 C -3,2 C 0,0 km/h (0 Bft)
26.02.2014 01:05 -2,8 C 79 % 1014,2 hPa 0,0 l/m 0,0 km/h (0 Bft) N 360 -5,9 C -3,2 C 0,0 km/h (0 Bft)
26.02.2014 01:10 -2,6 C 79 % 1014,1 hPa 0,0 l/m 0,0 km/h (0 Bft) N-NO 22 -5,7 C -3,0 C 0,0 km/h (0 Bft)
26.02.2014 01:15 -2,5 C 79 % 1014,1 hPa 0,0 l/m 0,0 km/h (0 Bft) N-NO 22 -5,6 C -2,9 C 0,0 km/h (0 Bft)
26.02.2014 01:20 -2,2 C 79 % 1014,1 hPa 0,0 l/m 0,0 km/h (0 Bft) W-NW 292 -5,3 C -2,3 C 0,0 km/h (0 Bft)
26.02.2014 01:25 -2,0 C 80 % 1014,1 hPa 0,0 l/m 0,0 km/h (0 Bft) W-NW 292 -5,0 C -2,2 C 0,0 km/h (0 Bft)
26.02.2014 01:30 -2,2 C 79 % 1014,2 hPa 0,0 l/m 0,0 km/h (0 Bft) O 90 -5,3 C -2,2 C 2,1 km/h (1 Bft)
26.02.2014 01:35 -2,4 C 79 % 1014,2 hPa 0,0 l/m 0,0 km/h (0 Bft) O-SO 112 -5,5 C -2,3 C 0,0 km/h (0 Bft)
26.02.2014 01:40 -2,4 C 79 % 1014,2 hPa 0,0 l/m 0,0 km/h (0 Bft) O 90 -5,5 C -2,6 C 0,0 km/h (0 Bft)
26.02.2014 01:45 -2,4 C 79 % 1014,2 hPa 0,0 l/m 0,0 km/h (0 Bft) SW 225 -5,5 C -2,6 C 0,0 km/h (0 Bft)
26.02.2014 01:50 -2,5 C 79 % 1014,2 hPa 0,0 l/m 0,0 km/h (0 Bft) O-SO 112 -5,6 C -2,6 C 0,0 km/h (0 Bft)
26.02.2014 01:55 -2,4 C 79 % 1014,2 hPa 0,0 l/m 0,0 km/h (0 Bft) N 360 -5,5 C -2,5 C 0,0 km/h (0 Bft)
26.02.2014 02:00 -1,7 C 79 % 1014,2 hPa 0,0 l/m 0,0 km/h (0 Bft) NW 315 -4,8 C -2,0 C 2,3 km/h (1 Bft)
26.02.2014 02:05 -1,7 C 79 % 1014,2 hPa 0,0 l/m 0,0 km/h (0 Bft) N-NO 22 -4,8 C -1,7 C 0,0 km/h (0 Bft)
26.02.2014 02:10 -1,4 C 78 % 1014,2 hPa 0,0 l/m 0,0 km/h (0 Bft) O-NO 67 -4,7 C -1,3 C 0,0 km/h (0 Bft)
26.02.2014 02:15 -1,4 C 77 % 1014,2 hPa 0,0 l/m 0,2 km/h (0 Bft) NO 45 -4,9 C -1,1 C 2,6 km/h (1 Bft)
26.02.2014 02:20 -1,1 C 76 % 1014,2 hPa 0,0 l/m 0,2 km/h (0 Bft) NO 45 -4,8 C -0,8 C 3,1 km/h (1 Bft)
26.02.2014 02:25 -0,9 C 76 % 1014,2 hPa 0,0 l/m 0,2 km/h (0 Bft) N 360 -4,6 C -0,6 C 0,0 km/h (0 Bft)
26.02.2014 02:30 -0,8 C 75 % 1014,0 hPa 0,0 l/m 0,2 km/h (0 Bft) NW 315 -4,7 C -0,4 C 3,9 km/h (1 Bft)
26.02.2014 02:35 -0,7 C 74 % 1014,0 hPa 0,0 l/m 0,3 km/h (0 Bft) W-NW 292 -4,7 C -0,1 C 0,0 km/h (0 Bft)
26.02.2014 02:40 -0,5 C 73 % 1014,0 hPa 0,0 l/m 0,2 km/h (0 Bft) N-NO 22 -4,7 C 0,0 C 0,0 km/h (0 Bft)
26.02.2014 02:45 -0,5 C 73 % 1014,0 hPa 0,0 l/m 0,0 km/h (0 Bft) W-NW 292 -4,7 C 0,1 C 0,0 km/h (0 Bft)
26.02.2014 02:50 -0,3 C 72 % 1014,1 hPa 0,0 l/m 0,0 km/h (0 Bft) W-NW 292 -4,7 C 0,1 C 0,0 km/h (0 Bft)
26.02.2014 02:55 -0,2 C 71 % 1014,1 hPa 0,0 l/m 0,0 km/h (0 Bft) W-NW 292 -4,8 C 0,1 C 0,0 km/h (0 Bft)
26.02.2014 03:00 -0,3 C 70 % 1014,1 hPa 0,0 l/m 0,2 km/h (0 Bft) NW 315 -5,1 C 0,2 C 0,0 km/h (0 Bft)
26.02.2014 03:05 -0,2 C 70 % 1014,1 hPa 0,0 l/m 0,2 km/h (0 Bft) W 270 -5,0 C 0,3 C 0,0 km/h (0 Bft)
26.02.2014 03:10 -0,1 C 69 % 1014,1 hPa 0,0 l/m 0,2 km/h (0 Bft) N 360 -5,1 C 0,4 C 1,8 km/h (1 Bft)
26.02.2014 03:15 0,0 C 69 % 1014,1 hPa 0,0 l/m 0,3 km/h (0 Bft) W 270 -5,0 C 0,5 C 2,1 km/h (1 Bft)
26.02.2014 03:18 0,2 C 68 % 1014,1 hPa 0,0 l/m 0,3 km/h (0 Bft) N-NW 337 -5,0 C 0,7 C 0,0 km/h (0 Bft)
26.02.2014 03:20 0,2 C 68 % 1014,1 hPa 0,0 l/m 0,3 km/h (0 Bft) N-NW 337 -5,0 C 0,7 C 0,0 km/h (0 Bft)
26.02.2014 03:25 0,1 C 68 % 1014,1 hPa 0,0 l/m 0,3 km/h (0 Bft) N-NO 22 -5,1 C 0,8 C 0,0 km/h (0 Bft)
26.02.2014 03:30 0,3 C 67 % 1013,8 hPa 0,0 l/m 0,3 km/h (0 Bft) O-SO 112 -5,1 C 0,7 C 0,0 km/h (0 Bft)
26.02.2014 03:35 0,3 C 67 % 1013,8 hPa 0,0 l/m 0,3 km/h (0 Bft) NO 45 -5,1 C 0,8 C 2,6 km/h (1 Bft)
26.02.2014 03:40 0,1 C 67 % 1013,8 hPa 0,0 l/m 0,3 km/h (0 Bft) N-NO 22 -5,3 C 0,9 C 0,0 km/h (0 Bft)
26.02.2014 03:45 0,0 C 66 % 1013,8 hPa 0,0 l/m 0,5 km/h (0 Bft) W-NW 292 -5,6 C 0,8 C 1,9 km/h (1 Bft)
26.02.2014 03:50 0,1 C 66 % 1013,8 hPa 0,0 l/m 0,2 km/h (0 Bft) W-NW 292 -5,5 C 0,7 C 4,0 km/h (1 Bft)
26.02.2014 03:55 0,0 C 66 % 1013,8 hPa 0,0 l/m 0,8 km/h (0 Bft) NW 315 -5,6 C 0,7 C 3,7 km/h (1 Bft)
26.02.2014 04:00 0,1 C 66 % 1013,8 hPa 0,0 l/m 1,0 km/h (0 Bft) N 360 -5,5 C 0,8 C 0,0 km/h (0 Bft)
26.02.2014 04:05 0,0 C 65 % 1013,8 hPa 0,0 l/m 0,5 km/h (0 Bft) N 360 -5,8 C 0,7 C 0,0 km/h (0 Bft)
26.02.2014 04:10 -0,2 C 65 % 1013,8 hPa 0,0 l/m 0,5 km/h (0 Bft) N 360 -6,0 C 0,6 C 0,0 km/h (0 Bft)
26.02.2014 04:15 0,0 C 65 % 1013,8 hPa 0,0 l/m 0,5 km/h (0 Bft) NO 45 -5,8 C 0,5 C 2,7 km/h (1 Bft)
26.02.2014 04:20 0,0 C 65 % 1013,8 hPa 0,0 l/m 0,3 km/h (0 Bft) N-NW 337 -5,8 C 0,3 C 0,0 km/h (0 Bft)
26.02.2014 04:25 0,0 C 65 % 1013,8 hPa 0,0 l/m 0,5 km/h (0 Bft) N 360 -5,8 C 0,3 C 0,0 km/h (0 Bft)
26.02.2014 04:30 -0,2 C 64 % 1013,9 hPa 0,0 l/m 0,5 km/h (0 Bft) SO 135 -6,2 C 0,3 C 0,0 km/h (0 Bft)
26.02.2014 04:35 -0,2 C 64 % 1013,9 hPa 0,0 l/m 0,3 km/h (0 Bft) SO 135 -6,2 C 0,3 C 2,4 km/h (1 Bft)
26.02.2014 04:40 0,1 C 64 % 1013,9 hPa 0,0 l/m 0,5 km/h (0 Bft) NO 45 -5,9 C 0,3 C 4,5 km/h (1 Bft)
26.02.2014 04:45 0,0 C 64 % 1013,9 hPa 0,0 l/m 0,5 km/h (0 Bft) N-NO 22 -6,0 C 0,3 C 0,0 km/h (0 Bft)
26.02.2014 04:50 0,1 C 63 % 1013,9 hPa 0,0 l/m 0,2 km/h (0 Bft) N-NO 22 -6,1 C 0,2 C 0,0 km/h (0 Bft)
26.02.2014 04:55 -0,1 C 63 % 1013,9 hPa 0,0 l/m 0,2 km/h (0 Bft) N 360 -6,3 C 0,2 C 0,0 km/h (0 Bft)
26.02.2014 05:00 0,0 C 63 % 1013,9 hPa 0,0 l/m 0,0 km/h (0 Bft) NW 315 -6,2 C 0,3 C 0,0 km/h (0 Bft)
26.02.2014 05:05 -0,2 C 63 % 1013,9 hPa 0,0 l/m 0,0 km/h (0 Bft) W-NW 292 -6,4 C 0,3 C 0,0 km/h (0 Bft)
26.02.2014 05:10 -0,2 C 62 % 1014,2 hPa 0,0 l/m 0,2 km/h (0 Bft) N-NW 337 -6,6 C 0,3 C 0,0 km/h (0 Bft)
26.02.2014 05:15 0,1 C 63 % 1014,2 hPa 0,0 l/m 0,2 km/h (0 Bft) N 360 -6,1 C 0,2 C 0,0 km/h (0 Bft)
26.02.2014 05:20 0,0 C 62 % 1014,2 hPa 0,0 l/m 0,0 km/h (0 Bft) N 360 -6,4 C 0,1 C 0,0 km/h (0 Bft)
26.02.2014 05:25 -0,1 C 62 % 1014,2 hPa 0,0 l/m 0,0 km/h (0 Bft) N-NO 22 -6,5 C 0,1 C 1,8 km/h (1 Bft)
26.02.2014 05:30 -0,3 C 62 % 1014,2 hPa 0,0 l/m 0,3 km/h (0 Bft) NO 45 -6,7 C 0,3 C 0,0 km/h (0 Bft)
26.02.2014 05:35 -0,2 C 63 % 1014,2 hPa 0,0 l/m 0,6 km/h (0 Bft) W 270 -6,4 C 0,3 C 3,1 km/h (1 Bft)
26.02.2014 05:40 -0,1 C 62 % 1014,2 hPa 0,0 l/m 1,8 km/h (1 Bft) SW 225 -6,5 C 0,4 C 3,9 km/h (1 Bft)
26.02.2014 05:45 -0,2 C 62 % 1014,2 hPa 0,0 l/m 2,7 km/h (1 Bft) S 180 -6,6 C 0,1 C 3,1 km/h (1 Bft)
26.02.2014 05:50 -0,4 C 62 % 1014,2 hPa 0,0 l/m 1,8 km/h (1 Bft) S 180 -6,8 C -0,2 C 0,0 km/h (0 Bft)
26.02.2014 05:55 -0,3 C 62 % 1014,2 hPa 0,0 l/m 0,8 km/h (0 Bft) S 180 -6,7 C -0,3 C 0,0 km/h (0 Bft)
26.02.2014 06:00 -0,7 C 62 % 1014,2 hPa 0,0 l/m 0,0 km/h (0 Bft) S 180 -7,1 C -0,6 C 0,0 km/h (0 Bft)
26.02.2014 06:05 -0,7 C 62 % 1014,2 hPa 0,0 l/m 0,0 km/h (0 Bft) S 180 -7,1 C -0,7 C 0,0 km/h (0 Bft)
26.02.2014 06:10 -0,7 C 62 % 1014,2 hPa 0,0 l/m 0,2 km/h (0 Bft) S 180 -7,1 C -0,8 C 0,0 km/h (0 Bft)
26.02.2014 06:15 -0,9 C 63 % 1014,2 hPa 0,0 l/m 0,2 km/h (0 Bft) S-SO 157 -7,0 C -0,9 C 0,0 km/h (0 Bft)
26.02.2014 06:20 -1,2 C 63 % 1014,2 hPa 0,0 l/m 0,0 km/h (0 Bft) S 180 -7,3 C -1,1 C 0,0 km/h (0 Bft)
26.02.2014 06:25 -1,1 C 64 % 1014,2 hPa 0,0 l/m 0,0 km/h (0 Bft) S-SO 157 -7,0 C -1,2 C 0,0 km/h (0 Bft)
26.02.2014 06:30 -0,9 C 64 % 1014,4 hPa 0,0 l/m 0,2 km/h (0 Bft) S-SO 157 -6,8 C -1,3 C 0,0 km/h (0 Bft)
26.02.2014 06:35 -0,9 C 64 % 1014,4 hPa 0,0 l/m 0,2 km/h (0 Bft) S-SO 157 -6,8 C -1,2 C 0,0 km/h (0 Bft)
26.02.2014 06:40 -1,2 C 64 % 1014,4 hPa 0,0 l/m 0,2 km/h (0 Bft) S-SW 202 -7,1 C -1,2 C 0,0 km/h (0 Bft)
26.02.2014 06:45 -1,4 C 64 % 1014,4 hPa 0,0 l/m 0,0 km/h (0 Bft) S-SW 202 -7,3 C -1,3 C 0,0 km/h (0 Bft)
26.02.2014 06:50 -1,4 C 65 % 1014,4 hPa 0,0 l/m 0,5 km/h (0 Bft) SO 135 -7,1 C -1,6 C 2,6 km/h (1 Bft)
26.02.2014 06:55 -1,3 C 65 % 1014,4 hPa 0,0 l/m 0,5 km/h (0 Bft) SO 135 -7,0 C -1,6 C 0,0 km/h (0 Bft)
26.02.2014 07:00 -1,4 C 65 % 1014,4 hPa 0,0 l/m 0,2 km/h (0 Bft) S-SO 157 -7,1 C -1,6 C 0,0 km/h (0 Bft)
26.02.2014 07:05 -1,1 C 66 % 1014,4 hPa 0,0 l/m 0,2 km/h (0 Bft) SO 135 -6,6 C -1,8 C 2,7 km/h (1 Bft)
26.02.2014 07:10 -1,2 C 67 % 1014,6 hPa 0,0 l/m 1,0 km/h (0 Bft) N-NW 337 -6,5 C -1,6 C 0,0 km/h (0 Bft)
26.02.2014 07:15 -1,4 C 66 % 1014,6 hPa 0,0 l/m 1,0 km/h (0 Bft) N-NO 22 -6,9 C -1,6 C 0,0 km/h (0 Bft)
26.02.2014 07:20 -1,3 C 67 % 1014,6 hPa 0,0 l/m 0,3 km/h (0 Bft) N-NO 22 -6,6 C -1,5 C 0,0 km/h (0 Bft)
26.02.2014 07:25 -1,5 C 67 % 1014,6 hPa 0,0 l/m 0,3 km/h (0 Bft) N-NO 22 -6,8 C -1,5 C 0,0 km/h (0 Bft)
26.02.2014 07:30 -1,5 C 67 % 1014,7 hPa 0,0 l/m 0,2 km/h (0 Bft) N-NO 22 -6,8 C -1,6 C 0,0 km/h (0 Bft)
26.02.2014 07:35 -1,8 C 66 % 1014,7 hPa 0,0 l/m 0,2 km/h (0 Bft) N-NO 22 -7,3 C -1,8 C 0,0 km/h (0 Bft)
26.02.2014 07:40 -1,3 C 67 % 1014,7 hPa 0,0 l/m 1,1 km/h (1 Bft) NO 45 -6,6 C -1,9 C 4,8 km/h (1 Bft)
26.02.2014 07:45 -0,7 C 67 % 1014,7 hPa 0,0 l/m 1,9 km/h (1 Bft) O-NO 67 -6,0 C -1,7 C 1,8 km/h (1 Bft)
26.02.2014 07:50 -0,9 C 66 % 1014,6 hPa 0,0 l/m 1,4 km/h (1 Bft) O 90 -6,4 C -1,5 C 0,0 km/h (0 Bft)
26.02.2014 07:55 -1,2 C 66 % 1014,6 hPa 0,0 l/m 0,5 km/h (0 Bft) O-NO 67 -6,7 C -1,5 C 0,0 km/h (0 Bft)
26.02.2014 08:00 -1,5 C 67 % 1014,6 hPa 0,0 l/m 0,2 km/h (0 Bft) O 90 -6,8 C -1,6 C 0,0 km/h (0 Bft)
26.02.2014 08:05 -1,0 C 67 % 1014,6 hPa 0,0 l/m 0,2 km/h (0 Bft) O 90 -6,3 C -1,6 C 0,0 km/h (0 Bft)
26.02.2014 08:10 -1,4 C 68 % 1014,9 hPa 0,0 l/m 0,2 km/h (0 Bft) N 360 -6,5 C -1,5 C 0,0 km/h (0 Bft)
26.02.2014 08:15 -1,3 C 68 % 1014,9 hPa 0,0 l/m 0,0 km/h (0 Bft) N 360 -6,4 C -1,4 C 0,0 km/h (0 Bft)
26.02.2014 08:18 -0,9 C 68 % 1014,9 hPa 0,0 l/m 0,2 km/h (0 Bft) N-NO 22 -6,0 C -1,1 C 1,8 km/h (1 Bft)
26.02.2014 08:20 -0,9 C 68 % 1014,9 hPa 0,0 l/m 0,2 km/h (0 Bft) N-NO 22 -6,0 C -1,1 C 1,8 km/h (1 Bft)
26.02.2014 08:25 -0,9 C 68 % 1014,9 hPa 0,0 l/m 0,2 km/h (0 Bft) N-NO 22 -6,0 C -1,0 C 0,0 km/h (0 Bft)
26.02.2014 08:30 -1,1 C 68 % 1014,8 hPa 0,0 l/m 0,0 km/h (0 Bft) N-NO 22 -6,2 C -0,8 C 0,0 km/h (0 Bft)
26.02.2014 08:35 -1,1 C 68 % 1014,8 hPa 0,0 l/m 0,0 km/h (0 Bft) N-NO 22 -6,2 C -0,8 C 0,0 km/h (0 Bft)
26.02.2014 08:40 -0,8 C 68 % 1014,8 hPa 0,0 l/m 0,0 km/h (0 Bft) N-NO 22 -5,9 C -0,7 C 0,0 km/h (0 Bft)
26.02.2014 08:45 -0,6 C 68 % 1014,8 hPa 0,0 l/m 0,0 km/h (0 Bft) N-NO 22 -5,8 C 0,0 C 0,0 km/h (0 Bft)
26.02.2014 08:50 -0,1 C 68 % 1014,8 hPa 0,0 l/m 0,0 km/h (0 Bft) N-NO 22 -5,3 C 3,4 C 0,0 km/h (0 Bft)
26.02.2014 08:55 0,3 C 68 % 1014,8 hPa 0,0 l/m 0,0 km/h (0 Bft) N-NO 22 -4,9 C 5,2 C 0,0 km/h (0 Bft)
26.02.2014 09:00 0,2 C 67 % 1014,8 hPa 0,0 l/m 0,0 km/h (0 Bft) N-NO 22 -5,2 C 6,1 C 0,0 km/h (0 Bft)
26.02.2014 09:05 0,2 C 67 % 1014,8 hPa 0,0 l/m 0,0 km/h (0 Bft) N-NO 22 -5,2 C 6,6 C 0,0 km/h (0 Bft)
26.02.2014 09:10 0,6 C 66 % 1015,0 hPa 0,0 l/m 0,0 km/h (0 Bft) N-NO 22 -5,0 C 8,2 C 0,0 km/h (0 Bft)
26.02.2014 09:15 0,8 C 65 % 1015,0 hPa 0,0 l/m 0,0 km/h (0 Bft) N-NO 22 -5,0 C 9,0 C 0,0 km/h (0 Bft)
26.02.2014 09:20 0,9 C 65 % 1015,0 hPa 0,0 l/m 0,0 km/h (0 Bft) N-NO 22 -4,9 C 10,3 C 0,0 km/h (0 Bft)
26.02.2014 09:25 1,3 C 64 % 1015,0 hPa 0,0 l/m 0,3 km/h (0 Bft) N-NO 22 -4,7 C 10,8 C 0,0 km/h (0 Bft)
26.02.2014 09:30 1,6 C 64 % 1015,0 hPa 0,0 l/m 0,5 km/h (0 Bft) O-NO 67 -4,5 C 10,9 C 4,5 km/h (1 Bft)
26.02.2014 09:35 2,5 C 63 % 1015,0 hPa 0,0 l/m 0,6 km/h (0 Bft) O-NO 67 -3,8 C 10,4 C 2,3 km/h (1 Bft)
26.02.2014 09:40 3,6 C 59 % 1015,0 hPa 0,0 l/m 0,8 km/h (0 Bft) O-NO 67 -3,6 C 10,2 C 2,4 km/h (1 Bft)
26.02.2014 09:45 3,8 C 59 % 1015,0 hPa 0,0 l/m 0,5 km/h (0 Bft) O-NO 67 -3,5 C 9,7 C 0,0 km/h (0 Bft)
26.02.2014 09:50 4,1 C 58 % 1015,2 hPa 0,0 l/m 0,2 km/h (0 Bft) N-NW 337 -3,4 C 8,9 C 0,0 km/h (0 Bft)
26.02.2014 09:55 4,4 C 58 % 1015,2 hPa 0,0 l/m 0,0 km/h (0 Bft) N 360 -3,1 C 8,6 C 0,0 km/h (0 Bft)
26.02.2014 10:00 5,4 C 55 % 1015,2 hPa 0,0 l/m 0,2 km/h (0 Bft) N-NW 337 -2,9 C 8,0 C 0,0 km/h (0 Bft)
26.02.2014 10:05 5,8 C 53 % 1015,2 hPa 0,0 l/m 0,3 km/h (0 Bft) W-NW 292 -3,0 C 7,7 C 2,7 km/h (1 Bft)
26.02.2014 10:10 6,5 C 47 % 1015,2 hPa 0,0 l/m 1,6 km/h (1 Bft) N-NW 337 -4,0 C 8,1 C 1,9 km/h (1 Bft)
26.02.2014 10:15 6,8 C 46 % 1015,2 hPa 0,0 l/m 1,8 km/h (1 Bft) N-NO 22 -4,0 C 8,7 C 4,7 km/h (1 Bft)
26.02.2014 10:20 6,5 C 46 % 1015,2 hPa 0,0 l/m 1,0 km/h (0 Bft) NO 45 -4,3 C 10,0 C 5,5 km/h (1 Bft)
26.02.2014 10:25 6,6 C 46 % 1015,2 hPa 0,0 l/m 0,8 km/h (0 Bft) N-NW 337 -4,2 C 11,1 C 0,0 km/h (0 Bft)
26.02.2014 10:30 6,8 C 47 % 1015,3 hPa 0,0 l/m 0,6 km/h (0 Bft) N-NW 337 -3,7 C 12,7 C 2,3 km/h (1 Bft)
26.02.2014 10:35 7,5 C 43 % 1015,3 hPa 0,0 l/m 1,1 km/h (1 Bft) NW 315 -4,3 C 13,8 C 2,4 km/h (1 Bft)
26.02.2014 10:40 9,1 C 43 % 1015,3 hPa 0,0 l/m 1,1 km/h (1 Bft) O 90 -2,8 C 15,2 C 0,0 km/h (0 Bft)
26.02.2014 10:45 10,1 C 41 % 1015,3 hPa 0,0 l/m 1,3 km/h (1 Bft) W-SW 247 -2,5 C 15,6 C 3,4 km/h (1 Bft)
26.02.2014 10:50 10,4 C 33 % 1015,7 hPa 0,0 l/m 2,9 km/h (1 Bft) N 360 -5,2 C 15,4 C 8,5 km/h (2 Bft)
26.02.2014 10:55 10,5 C 34 % 1015,7 hPa 0,0 l/m 4,5 km/h (1 Bft) W-NW 292 -4,7 C 15,0 C 7,4 km/h (2 Bft)
26.02.2014 11:00 10,3 C 33 % 1015,7 hPa 0,0 l/m 4,7 km/h (1 Bft) W-NW 292 -5,2 C 14,9 C 5,0 km/h (1 Bft)
26.02.2014 11:05 10,3 C 33 % 1015,7 hPa 0,0 l/m 4,0 km/h (1 Bft) N 360 -5,2 C 14,9 C 7,4 km/h (2 Bft)
26.02.2014 11:10 10,3 C 33 % 1015,5 hPa 0,0 l/m 5,3 km/h (1 Bft) N 360 -5,2 C 14,4 C 8,2 km/h (2 Bft)
26.02.2014 11:15 10,5 C 33 % 1015,5 hPa 0,0 l/m 5,8 km/h (2 Bft) W-NW 292 -5,1 C 14,2 C 6,9 km/h (2 Bft)
26.02.2014 11:20 10,3 C 33 % 1015,5 hPa 0,0 l/m 6,1 km/h (2 Bft) N 360 -5,2 C 13,9 C 10,8 km/h (2 Bft)
26.02.2014 11:25 10,6 C 34 % 1015,5 hPa 0,0 l/m 6,6 km/h (2 Bft) N 360 -4,6 C 13,1 C 6,6 km/h (2 Bft)
26.02.2014 11:30 11,2 C 33 % 1015,6 hPa 0,0 l/m 6,3 km/h (2 Bft) W-NW 292 -4,5 C 13,7 C 5,5 km/h (1 Bft)
26.02.2014 11:35 11,3 C 33 % 1015,6 hPa 0,0 l/m 6,0 km/h (2 Bft) N-NW 337 -4,4 C 13,9 C 7,6 km/h (2 Bft)
26.02.2014 11:40 11,4 C 32 % 1015,6 hPa 0,0 l/m 6,1 km/h (2 Bft) W-NW 292 -4,7 C 13,9 C 10,9 km/h (2 Bft)
26.02.2014 11:45 11,4 C 33 % 1015,6 hPa 0,0 l/m 6,0 km/h (2 Bft) N-NW 337 -4,3 C 13,7 C 7,2 km/h (2 Bft)
26.02.2014 11:50 11,3 C 32 % 1015,6 hPa 0,0 l/m 6,6 km/h (2 Bft) N-NW 337 -4,8 C 13,2 C 11,3 km/h (2 Bft)
26.02.2014 11:55 10,6 C 33 % 1015,6 hPa 0,0 l/m 6,9 km/h (2 Bft) W-NW 292 -5,0 C 12,5 C 8,4 km/h (2 Bft)
26.02.2014 12:00 10,3 C 33 % 1015,6 hPa 0,0 l/m 6,8 km/h (2 Bft) N-NW 337 -5,2 C 11,5 C 11,7 km/h (2 Bft)
26.02.2014 12:05 10,3 C 34 % 1015,6 hPa 0,0 l/m 6,9 km/h (2 Bft) N-NW 337 -4,9 C 11,1 C 6,4 km/h (2 Bft)
26.02.2014 12:10 10,7 C 34 % 1015,4 hPa 0,0 l/m 6,8 km/h (2 Bft) W-NW 292 -4,5 C 11,4 C 6,6 km/h (2 Bft)
26.02.2014 12:15 11,3 C 34 % 1015,4 hPa 0,0 l/m 6,3 km/h (2 Bft) N-NW 337 -4,0 C 12,3 C 7,7 km/h (2 Bft)
26.02.2014 12:20 11,0 C 33 % 1015,4 hPa 0,0 l/m 6,9 km/h (2 Bft) W-NW 292 -4,6 C 12,6 C 13,8 km/h (3 Bft)
26.02.2014 12:25 10,7 C 34 % 1015,4 hPa 0,0 l/m 7,1 km/h (2 Bft) NW 315 -4,5 C 12,3 C 6,1 km/h (2 Bft)
26.02.2014 12:30 10,7 C 33 % 1015,3 hPa 0,0 l/m 6,8 km/h (2 Bft) W 270 -4,9 C 12,0 C 9,3 km/h (2 Bft)
26.02.2014 12:35 11,1 C 34 % 1015,3 hPa 0,0 l/m 6,8 km/h (2 Bft) N-NO 22 -4,2 C 12,0 C 12,7 km/h (3 Bft)
26.02.2014 12:40 11,5 C 33 % 1015,3 hPa 0,0 l/m 7,1 km/h (2 Bft) N-NW 337 -4,2 C 12,4 C 6,9 km/h (2 Bft)
26.02.2014 12:45 11,2 C 33 % 1015,3 hPa 0,0 l/m 6,8 km/h (2 Bft) O 90 -4,5 C 13,0 C 8,0 km/h (2 Bft)
26.02.2014 12:50 11,1 C 33 % 1015,1 hPa 0,0 l/m 6,3 km/h (2 Bft) O 90 -4,5 C 13,7 C 8,5 km/h (2 Bft)
26.02.2014 12:55 11,0 C 35 % 1015,1 hPa 0,0 l/m 6,9 km/h (2 Bft) N-NW 337 -3,9 C 13,0 C 5,5 km/h (1 Bft)
26.02.2014 13:00 11,3 C 34 % 1015,1 hPa 0,0 l/m 6,6 km/h (2 Bft) N 360 -4,0 C 13,2 C 8,9 km/h (2 Bft)
26.02.2014 13:05 11,5 C 34 % 1015,1 hPa 0,0 l/m 6,9 km/h (2 Bft) N-NW 337 -3,8 C 13,3 C 6,9 km/h (2 Bft)
26.02.2014 13:10 11,9 C 34 % 1014,9 hPa 0,0 l/m 6,9 km/h (2 Bft) N-NW 337 -3,4 C 13,9 C 7,1 km/h (2 Bft)
26.02.2014 13:13 11,6 C 34 % 1014,9 hPa 0,0 l/m 6,4 km/h (2 Bft) W 270 -3,7 C 14,5 C 8,5 km/h (2 Bft)
26.02.2014 13:15 11,6 C 34 % 1014,9 hPa 0,0 l/m 6,4 km/h (2 Bft) W 270 -3,7 C 14,5 C 8,5 km/h (2 Bft)
26.02.2014 13:20 11,4 C 35 % 1014,9 hPa 0,0 l/m 6,1 km/h (2 Bft) W-NW 292 -3,5 C 13,8 C 7,4 km/h (2 Bft)
26.02.2014 13:25 11,4 C 34 % 1014,9 hPa 0,0 l/m 6,3 km/h (2 Bft) N-NW 337 -3,9 C 13,9 C 7,4 km/h (2 Bft)
26.02.2014 13:30 11,5 C 35 % 1014,9 hPa 0,0 l/m 6,0 km/h (2 Bft) W-NW 292 -3,4 C 13,6 C 6,4 km/h (2 Bft)
26.02.2014 13:35 12,4 C 35 % 1014,9 hPa 0,0 l/m 5,6 km/h (1 Bft) W-NW 292 -2,6 C 14,2 C 7,7 km/h (2 Bft)
26.02.2014 13:40 12,1 C 34 % 1014,9 hPa 0,0 l/m 6,4 km/h (2 Bft) N-NO 22 -3,3 C 14,9 C 9,7 km/h (2 Bft)
26.02.2014 13:45 10,9 C 35 % 1014,9 hPa 0,0 l/m 6,4 km/h (2 Bft) N-NW 337 -3,9 C 14,3 C 6,6 km/h (2 Bft)
26.02.2014 13:50 11,5 C 36 % 1014,7 hPa 0,0 l/m 5,8 km/h (2 Bft) W-NW 292 -3,0 C 13,8 C 8,7 km/h (2 Bft)
26.02.2014 13:55 11,7 C 35 % 1014,7 hPa 0,0 l/m 5,8 km/h (2 Bft) N-NO 22 -3,2 C 14,2 C 9,0 km/h (2 Bft)
26.02.2014 14:00 10,9 C 36 % 1014,7 hPa 0,0 l/m 6,1 km/h (2 Bft) N 360 -3,6 C 13,8 C 7,1 km/h (2 Bft)
26.02.2014 14:05 10,7 C 36 % 1014,7 hPa 0,0 l/m 6,0 km/h (2 Bft) N-NW 337 -3,7 C 12,9 C 7,4 km/h (2 Bft)
26.02.2014 14:10 10,9 C 36 % 1014,7 hPa 0,0 l/m 6,3 km/h (2 Bft) NW 315 -3,6 C 12,4 C 6,8 km/h (2 Bft)
26.02.2014 14:15 11,2 C 36 % 1014,7 hPa 0,0 l/m 6,4 km/h (2 Bft) N-NW 337 -3,3 C 12,5 C 10,1 km/h (2 Bft)
26.02.2014 14:20 11,8 C 35 % 1014,7 hPa 0,0 l/m 6,1 km/h (2 Bft) NW 315 -3,1 C 13,2 C 9,3 km/h (2 Bft)
26.02.2014 14:25 12,1 C 34 % 1014,7 hPa 0,0 l/m 6,4 km/h (2 Bft) N-NW 337 -3,3 C 14,2 C 6,4 km/h (2 Bft)
26.02.2014 14:30 12,3 C 33 % 1014,6 hPa 0,0 l/m 6,8 km/h (2 Bft) NW 315 -3,5 C 14,8 C 7,7 km/h (2 Bft)
26.02.2014 14:35 12,4 C 33 % 1014,6 hPa 0,0 l/m 6,6 km/h (2 Bft) N-NW 337 -3,4 C 15,0 C 6,6 km/h (2 Bft)
26.02.2014 14:40 12,1 C 32 % 1014,6 hPa 0,0 l/m 6,8 km/h (2 Bft) W-SW 247 -4,1 C 14,8 C 8,9 km/h (2 Bft)
26.02.2014 14:45 12,1 C 33 % 1014,6 hPa 0,0 l/m 6,6 km/h (2 Bft) W-NW 292 -3,7 C 14,7 C 6,9 km/h (2 Bft)
26.02.2014 14:50 11,8 C 33 % 1014,5 hPa 0,0 l/m 6,6 km/h (2 Bft) NW 315 -3,9 C 14,4 C 10,6 km/h (2 Bft)
26.02.2014 14:55 12,2 C 33 % 1014,5 hPa 0,0 l/m 6,8 km/h (2 Bft) N-NW 337 -3,6 C 14,3 C 7,9 km/h (2 Bft)
26.02.2014 15:00 11,7 C 34 % 1014,5 hPa 0,0 l/m 7,1 km/h (2 Bft) N-NW 337 -3,6 C 14,3 C 9,2 km/h (2 Bft)
26.02.2014 15:05 11,3 C 35 % 1014,5 hPa 0,0 l/m 6,8 km/h (2 Bft) NO 45 -3,6 C 13,6 C 8,2 km/h (2 Bft)
26.02.2014 15:10 11,0 C 35 % 1014,6 hPa 0,0 l/m 7,4 km/h (2 Bft) N-NW 337 -3,9 C 12,3 C 10,1 km/h (2 Bft)
26.02.2014 15:15 10,8 C 35 % 1014,6 hPa 0,0 l/m 7,1 km/h (2 Bft) W-NW 292 -4,0 C 12,2 C 9,0 km/h (2 Bft)
26.02.2014 15:20 10,8 C 36 % 1014,6 hPa 0,0 l/m 6,8 km/h (2 Bft) N-NW 337 -3,7 C 11,8 C 10,8 km/h (2 Bft)
26.02.2014 15:25 11,2 C 36 % 1014,6 hPa 0,0 l/m 6,6 km/h (2 Bft) W 270 -3,3 C 12,1 C 6,8 km/h (2 Bft)
26.02.2014 15:30 12,0 C 34 % 1014,4 hPa 0,0 l/m 7,2 km/h (2 Bft) W-NW 292 -3,4 C 12,8 C 14,2 km/h (3 Bft)
26.02.2014 15:35 12,3 C 34 % 1014,4 hPa 0,0 l/m 7,4 km/h (2 Bft) N-NO 22 -3,1 C 13,9 C 9,7 km/h (2 Bft)
26.02.2014 15:40 12,3 C 34 % 1014,4 hPa 0,0 l/m 6,9 km/h (2 Bft) NW 315 -3,1 C 15,0 C 7,6 km/h (2 Bft)
26.02.2014 15:45 12,1 C 34 % 1014,4 hPa 0,0 l/m 7,1 km/h (2 Bft) NW 315 -3,3 C 15,1 C 7,4 km/h (2 Bft)
26.02.2014 15:50 11,8 C 35 % 1014,4 hPa 0,0 l/m 7,2 km/h (2 Bft) N-NW 337 -3,1 C 14,9 C 14,6 km/h (3 Bft)
26.02.2014 15:55 11,6 C 34 % 1014,4 hPa 0,0 l/m 6,8 km/h (2 Bft) W-NW 292 -3,7 C 14,9 C 7,6 km/h (2 Bft)
26.02.2014 16:00 11,2 C 35 % 1014,4 hPa 0,0 l/m 6,4 km/h (2 Bft) N 360 -3,7 C 15,0 C 8,4 km/h (2 Bft)
26.02.2014 16:05 10,9 C 36 % 1014,4 hPa 0,0 l/m 6,1 km/h (2 Bft) W-NW 292 -3,6 C 15,0 C 9,7 km/h (2 Bft)
26.02.2014 16:10 10,7 C 36 % 1014,5 hPa 0,0 l/m 6,0 km/h (2 Bft) W 270 -3,7 C 14,9 C 6,4 km/h (2 Bft)
26.02.2014 16:15 10,5 C 36 % 1014,5 hPa 0,0 l/m 6,4 km/h (2 Bft) N-NW 337 -3,9 C 14,3 C 7,2 km/h (2 Bft)
26.02.2014 16:20 9,9 C 38 % 1014,5 hPa 0,0 l/m 6,3 km/h (2 Bft) NW 315 -3,7 C 12,4 C 6,9 km/h (2 Bft)
26.02.2014 16:25 9,8 C 38 % 1014,5 hPa 0,0 l/m 6,0 km/h (2 Bft) N 360 -3,8 C 11,4 C 6,1 km/h (2 Bft)
26.02.2014 16:30 9,6 C 39 % 1014,6 hPa 0,0 l/m 5,1 km/h (1 Bft) W-NW 292 -3,7 C 10,8 C 6,4 km/h (2 Bft)
26.02.2014 16:35 9,5 C 39 % 1014,6 hPa 0,0 l/m 4,5 km/h (1 Bft) N 360 -3,7 C 10,9 C 3,5 km/h (1 Bft)
26.02.2014 16:40 9,4 C 40 % 1014,6 hPa 0,0 l/m 4,8 km/h (1 Bft) W 270 -3,5 C 11,4 C 6,9 km/h (2 Bft)
26.02.2014 16:45 9,3 C 40 % 1014,6 hPa 0,0 l/m 4,3 km/h (1 Bft) W 270 -3,6 C 11,2 C 0,0 km/h (0 Bft)
26.02.2014 16:50 9,2 C 41 % 1014,9 hPa 0,0 l/m 4,0 km/h (1 Bft) NW 315 -3,4 C 10,8 C 3,2 km/h (1 Bft)
26.02.2014 16:55 8,9 C 42 % 1014,9 hPa 0,0 l/m 3,2 km/h (1 Bft) W-NW 292 -3,3 C 10,5 C 3,2 km/h (1 Bft)
26.02.2014 17:00 8,7 C 43 % 1014,9 hPa 0,0 l/m 2,7 km/h (1 Bft) N-NO 22 -3,2 C 10,2 C 6,3 km/h (2 Bft)
26.02.2014 17:05 8,8 C 44 % 1014,9 hPa 0,0 l/m 2,7 km/h (1 Bft) W-SW 247 -2,8 C 10,1 C 3,1 km/h (1 Bft)
26.02.2014 17:10 8,5 C 44 % 1014,9 hPa 0,0 l/m 2,9 km/h (1 Bft) W-NW 292 -3,0 C 10,0 C 7,2 km/h (2 Bft)
26.02.2014 17:15 8,5 C 44 % 1014,9 hPa 0,0 l/m 2,6 km/h (1 Bft) W-NW 292 -3,0 C 9,8 C 0,0 km/h (0 Bft)
26.02.2014 17:20 8,1 C 46 % 1014,9 hPa 0,0 l/m 2,1 km/h (1 Bft) N-NW 337 -2,8 C 9,6 C 0,0 km/h (0 Bft)
26.02.2014 17:25 7,9 C 46 % 1014,9 hPa 0,0 l/m 0,8 km/h (0 Bft) W-NW 292 -3,0 C 9,5 C 1,9 km/h (1 Bft)
26.02.2014 17:30 7,5 C 46 % 1015,2 hPa 0,0 l/m 0,3 km/h (0 Bft) W 270 -3,4 C 9,0 C 0,0 km/h (0 Bft)
26.02.2014 17:35 7,2 C 47 % 1015,2 hPa 0,0 l/m 0,2 km/h (0 Bft) W 270 -3,3 C 8,8 C 0,0 km/h (0 Bft)
26.02.2014 17:40 7,1 C 47 % 1015,2 hPa 0,0 l/m 0,0 km/h (0 Bft) W 270 -3,4 C 8,4 C 0,0 km/h (0 Bft)
26.02.2014 17:45 7,1 C 47 % 1015,2 hPa 0,0 l/m 0,0 km/h (0 Bft) W 270 -3,4 C 8,2 C 0,0 km/h (0 Bft)
26.02.2014 17:50 7,1 C 48 % 1015,3 hPa 0,0 l/m 1,6 km/h (1 Bft) O 90 -3,2 C 7,8 C 3,2 km/h (1 Bft)
26.02.2014 17:55 7,0 C 49 % 1015,3 hPa 0,0 l/m 2,9 km/h (1 Bft) O 90 -3,0 C 7,6 C 5,0 km/h (1 Bft)
26.02.2014 18:00 6,9 C 50 % 1015,3 hPa 0,0 l/m 4,0 km/h (1 Bft) NO 45 -2,8 C 6,9 C 5,5 km/h (1 Bft)
26.02.2014 18:05 6,7 C 50 % 1015,3 hPa 0,0 l/m 4,5 km/h (1 Bft) NO 45 -3,0 C 6,5 C 6,4 km/h (2 Bft)
26.02.2014 18:10 6,6 C 50 % 1015,3 hPa 0,0 l/m 5,1 km/h (1 Bft) NO 45 -3,1 C 6,0 C 6,0 km/h (2 Bft)
26.02.2014 18:13 6,6 C 50 % 1015,3 hPa 0,0 l/m 4,8 km/h (1 Bft) O 90 -3,1 C 5,8 C 4,5 km/h (1 Bft)
26.02.2014 18:15 6,6 C 50 % 1015,3 hPa 0,0 l/m 4,8 km/h (1 Bft) O 90 -3,1 C 5,8 C 4,5 km/h (1 Bft)
26.02.2014 18:20 6,4 C 51 % 1015,3 hPa 0,0 l/m 3,7 km/h (1 Bft) O-NO 67 -3,0 C 6,0 C 2,1 km/h (1 Bft)
26.02.2014 18:25 6,0 C 53 % 1015,3 hPa 0,0 l/m 2,4 km/h (1 Bft) NO 45 -2,8 C 5,9 C 0,0 km/h (0 Bft)
26.02.2014 18:30 5,9 C 55 % 1015,6 hPa 0,0 l/m 0,5 km/h (0 Bft) O 90 -2,4 C 5,5 C 0,0 km/h (0 Bft)
26.02.2014 18:35 5,5 C 56 % 1015,6 hPa 0,0 l/m 0,2 km/h (0 Bft) O-NO 67 -2,6 C 5,3 C 0,0 km/h (0 Bft)
26.02.2014 18:40 5,5 C 56 % 1015,6 hPa 0,0 l/m 1,0 km/h (0 Bft) O-NO 67 -2,6 C 5,1 C 3,9 km/h (1 Bft)
26.02.2014 18:45 5,4 C 56 % 1015,6 hPa 0,0 l/m 1,3 km/h (1 Bft) NO 45 -2,7 C 5,1 C 0,0 km/h (0 Bft)
26.02.2014 18:50 4,5 C 57 % 1015,9 hPa 0,0 l/m 1,1 km/h (1 Bft) O-SO 112 -3,3 C 5,0 C 0,0 km/h (0 Bft)
26.02.2014 18:55 4,2 C 59 % 1015,9 hPa 0,0 l/m 0,3 km/h (0 Bft) O-SO 112 -3,1 C 4,8 C 0,0 km/h (0 Bft)
26.02.2014 19:00 4,7 C 58 % 1015,9 hPa 0,0 l/m 1,0 km/h (0 Bft) O 90 -2,8 C 4,7 C 2,9 km/h (1 Bft)
26.02.2014 19:05 4,6 C 58 % 1015,9 hPa 0,0 l/m 1,3 km/h (1 Bft) O-SO 112 -2,9 C 4,8 C 3,4 km/h (1 Bft)
26.02.2014 19:10 4,7 C 59 % 1016,2 hPa 0,0 l/m 1,4 km/h (1 Bft) W-SW 247 -2,6 C 5,0 C 0,0 km/h (0 Bft)
26.02.2014 19:15 4,4 C 59 % 1016,2 hPa 0,0 l/m 1,3 km/h (1 Bft) S 180 -2,9 C 5,1 C 2,4 km/h (1 Bft)
26.02.2014 19:20 5,1 C 58 % 1016,2 hPa 0,0 l/m 2,3 km/h (1 Bft) SO 135 -2,5 C 5,4 C 5,1 km/h (1 Bft)
26.02.2014 19:25 5,3 C 58 % 1016,2 hPa 0,0 l/m 3,4 km/h (1 Bft) S 180 -2,3 C 5,6 C 6,4 km/h (2 Bft)
26.02.2014 19:30 5,2 C 58 % 1016,5 hPa 0,0 l/m 3,1 km/h (1 Bft) S 180 -2,4 C 6,0 C 1,6 km/h (1 Bft)
26.02.2014 19:35 5,2 C 58 % 1016,5 hPa 0,0 l/m 2,1 km/h (1 Bft) SO 135 -2,4 C 6,0 C 2,6 km/h (1 Bft)
26.02.2014 19:40 5,5 C 58 % 1016,5 hPa 0,0 l/m 2,6 km/h (1 Bft) O-SO 112 -2,1 C 6,0 C 4,8 km/h (1 Bft)
26.02.2014 19:45 5,5 C 58 % 1016,5 hPa 0,0 l/m 3,1 km/h (1 Bft) S-SO 157 -2,1 C 6,1 C 0,0 km/h (0 Bft)
26.02.2014 19:50 5,4 C 58 % 1016,6 hPa 0,0 l/m 3,2 km/h (1 Bft) O-SO 112 -2,2 C 6,0 C 6,4 km/h (2 Bft)
26.02.2014 19:55 5,6 C 58 % 1016,6 hPa 0,0 l/m 3,5 km/h (1 Bft) S-SO 157 -2,0 C 5,8 C 4,0 km/h (1 Bft)
26.02.2014 20:00 5,4 C 58 % 1016,6 hPa 0,0 l/m 3,9 km/h (1 Bft) O 90 -2,2 C 5,7 C 5,0 km/h (1 Bft)
26.02.2014 20:05 5,5 C 58 % 1016,6 hPa 0,0 l/m 3,9 km/h (1 Bft) O-SO 112 -2,1 C 5,7 C 4,2 km/h (1 Bft)
26.02.2014 20:10 5,6 C 58 % 1017,2 hPa 0,0 l/m 4,7 km/h (1 Bft) O-SO 112 -2,0 C 5,3 C 4,8 km/h (1 Bft)
26.02.2014 20:15 5,5 C 58 % 1017,2 hPa 0,0 l/m 4,7 km/h (1 Bft) O 90 -2,1 C 5,3 C 5,5 km/h (1 Bft)
26.02.2014 20:20 5,4 C 59 % 1017,2 hPa 0,0 l/m 4,8 km/h (1 Bft) O-SO 112 -2,0 C 5,3 C 7,6 km/h (2 Bft)
26.02.2014 20:25 5,5 C 59 % 1017,2 hPa 0,0 l/m 5,1 km/h (1 Bft) SO 135 -1,9 C 5,1 C 2,6 km/h (1 Bft)
26.02.2014 20:30 5,2 C 59 % 1017,0 hPa 0,0 l/m 4,7 km/h (1 Bft) O-SO 112 -2,1 C 5,2 C 3,7 km/h (1 Bft)
26.02.2014 20:35 5,2 C 59 % 1017,0 hPa 0,0 l/m 3,7 km/h (1 Bft) O-SO 112 -2,1 C 5,4 C 3,7 km/h (1 Bft)
26.02.2014 20:40 5,1 C 59 % 1017,0 hPa 0,0 l/m 3,4 km/h (1 Bft) O-SO 112 -2,2 C 5,5 C 5,8 km/h (2 Bft)
26.02.2014 20:45 4,8 C 60 % 1017,0 hPa 0,0 l/m 3,1 km/h (1 Bft) S 180 -2,3 C 5,5 C 2,3 km/h (1 Bft)
26.02.2014 20:50 5,0 C 62 % 1017,2 hPa 0,0 l/m 3,2 km/h (1 Bft) O-SO 112 -1,7 C 5,3 C 5,1 km/h (1 Bft)
26.02.2014 20:55 4,9 C 62 % 1017,2 hPa 0,0 l/m 3,4 km/h (1 Bft) O-NO 67 -1,8 C 5,2 C 4,8 km/h (1 Bft)
26.02.2014 21:00 4,9 C 63 % 1017,2 hPa 0,0 l/m 3,5 km/h (1 Bft) O-SO 112 -1,5 C 5,1 C 5,8 km/h (2 Bft)
26.02.2014 21:05 4,8 C 63 % 1017,2 hPa 0,0 l/m 3,5 km/h (1 Bft) O-SO 112 -1,6 C 5,1 C 3,9 km/h (1 Bft)
26.02.2014 21:10 4,9 C 64 % 1017,2 hPa 0,0 l/m 3,7 km/h (1 Bft) S-SO 157 -1,3 C 4,9 C 4,5 km/h (1 Bft)
26.02.2014 21:15 4,8 C 64 % 1017,2 hPa 0,0 l/m 3,9 km/h (1 Bft) SO 135 -1,4 C 4,8 C 7,4 km/h (2 Bft)
26.02.2014 21:20 4,7 C 63 % 1017,2 hPa 0,0 l/m 4,2 km/h (1 Bft) S-SO 157 -1,7 C 4,6 C 6,9 km/h (2 Bft)
26.02.2014 21:25 4,3 C 63 % 1017,2 hPa 0,0 l/m 4,2 km/h (1 Bft) SO 135 -2,1 C 4,6 C 7,2 km/h (2 Bft)
26.02.2014 21:30 4,1 C 63 % 1017,4 hPa 0,0 l/m 2,9 km/h (1 Bft) O-SO 112 -2,3 C 5,0 C 2,3 km/h (1 Bft)
26.02.2014 21:35 4,1 C 63 % 1017,4 hPa 0,0 l/m 2,6 km/h (1 Bft) O-SO 112 -2,3 C 4,8 C 4,0 km/h (1 Bft)
26.02.2014 21:40 4,2 C 64 % 1017,4 hPa 0,0 l/m 2,7 km/h (1 Bft) SO 135 -2,0 C 4,7 C 3,2 km/h (1 Bft)
26.02.2014 21:45 4,2 C 65 % 1017,4 hPa 0,0 l/m 2,7 km/h (1 Bft) O 90 -1,8 C 4,6 C 4,3 km/h (1 Bft)
26.02.2014 21:50 4,2 C 65 % 1017,6 hPa 0,0 l/m 2,7 km/h (1 Bft) SO 135 -1,8 C 4,5 C 5,0 km/h (1 Bft)
26.02.2014 21:55 4,1 C 65 % 1017,6 hPa 0,0 l/m 2,4 km/h (1 Bft) O-SO 112 -1,9 C 4,3 C 0,0 km/h (0 Bft)
26.02.2014 22:00 4,1 C 65 % 1017,6 hPa 0,0 l/m 2,4 km/h (1 Bft) O-SO 112 -1,9 C 4,1 C 5,3 km/h (1 Bft)
26.02.2014 22:05 4,1 C 65 % 1017,6 hPa 0,0 l/m 3,1 km/h (1 Bft) O 90 -1,9 C 4,0 C 6,3 km/h (2 Bft)
26.02.2014 22:10 3,9 C 65 % 1017,7 hPa 0,0 l/m 4,8 km/h (1 Bft) O-NO 67 -2,1 C 3,0 C 5,8 km/h (2 Bft)
26.02.2014 22:15 3,7 C 65 % 1017,7 hPa 0,0 l/m 5,1 km/h (1 Bft) O 90 -2,3 C 2,9 C 7,2 km/h (2 Bft)
26.02.2014 22:20 3,6 C 66 % 1017,7 hPa 0,0 l/m 4,7 km/h (1 Bft) O-NO 67 -2,1 C 2,9 C 4,2 km/h (1 Bft)
26.02.2014 22:25 3,3 C 66 % 1017,7 hPa 0,0 l/m 4,7 km/h (1 Bft) O 90 -2,4 C 2,8 C 6,0 km/h (2 Bft)
26.02.2014 22:30 3,7 C 67 % 1017,7 hPa 0,0 l/m 5,1 km/h (1 Bft) O-SO 112 -1,8 C 2,6 C 4,7 km/h (1 Bft)
26.02.2014 22:35 3,5 C 67 % 1017,7 hPa 0,0 l/m 4,2 km/h (1 Bft) O 90 -2,0 C 3,0 C 0,0 km/h (0 Bft)
26.02.2014 22:40 3,4 C 67 % 1017,7 hPa 0,0 l/m 3,2 km/h (1 Bft) O-NO 67 -2,1 C 3,1 C 6,1 km/h (2 Bft)
26.02.2014 22:45 3,2 C 67 % 1017,7 hPa 0,0 l/m 4,3 km/h (1 Bft) SO 135 -2,3 C 2,6 C 6,4 km/h (2 Bft)
26.02.2014 22:50 3,0 C 68 % 1017,7 hPa 0,0 l/m 5,6 km/h (1 Bft) O-SO 112 -2,3 C 2,0 C 7,4 km/h (2 Bft)
26.02.2014 22:55 2,9 C 69 % 1017,7 hPa 0,0 l/m 5,3 km/h (1 Bft) O-SO 112 -2,2 C 2,1 C 4,5 km/h (1 Bft)
26.02.2014 23:00 2,5 C 69 % 1017,7 hPa 0,0 l/m 3,2 km/h (1 Bft) O 90 -2,6 C 2,9 C 0,0 km/h (0 Bft)
26.02.2014 23:05 2,3 C 69 % 1017,7 hPa 0,0 l/m 1,9 km/h (1 Bft) S-SO 157 -2,8 C 3,0 C 1,8 km/h (1 Bft)
26.02.2014 23:10 1,7 C 71 % 1017,5 hPa 0,0 l/m 0,5 km/h (0 Bft) W 270 -3,0 C 2,4 C 1,8 km/h (1 Bft)
26.02.2014 23:13 1,8 C 71 % 1017,5 hPa 0,0 l/m 1,4 km/h (1 Bft) W 270 -2,9 C 2,0 C 4,2 km/h (1 Bft)
26.02.2014 23:15 1,8 C 71 % 1017,5 hPa 0,0 l/m 1,4 km/h (1 Bft) W 270 -2,9 C 2,0 C 4,2 km/h (1 Bft)
26.02.2014 23:20 2,4 C 72 % 1017,5 hPa 0,0 l/m 4,2 km/h (1 Bft) O 90 -2,1 C 1,3 C 7,4 km/h (2 Bft)
26.02.2014 23:25 2,3 C 72 % 1017,5 hPa 0,0 l/m 5,3 km/h (1 Bft) O 90 -2,2 C 1,2 C 7,6 km/h (2 Bft)
26.02.2014 23:30 2,6 C 73 % 1017,8 hPa 0,0 l/m 5,8 km/h (2 Bft) O 90 -1,7 C 1,2 C 7,2 km/h (2 Bft)
26.02.2014 23:35 2,6 C 73 % 1017,8 hPa 0,0 l/m 5,8 km/h (2 Bft) O-NO 67 -1,7 C 1,3 C 6,1 km/h (2 Bft)
26.02.2014 23:40 2,4 C 72 % 1017,8 hPa 0,0 l/m 6,1 km/h (2 Bft) O 90 -2,1 C 1,4 C 5,1 km/h (1 Bft)
26.02.2014 23:45 2,3 C 73 % 1017,8 hPa 0,0 l/m 5,8 km/h (2 Bft) O-SO 112 -2,0 C 1,2 C 8,2 km/h (2 Bft)
26.02.2014 23:50 2,1 C 72 % 1017,9 hPa 0,0 l/m 5,8 km/h (2 Bft) O-SO 112 -2,4 C 1,2 C 7,6 km/h (2 Bft)
26.02.2014 23:55 2,1 C 72 % 1017,9 hPa 0,0 l/m 6,0 km/h (2 Bft) O-SO 112 -2,4 C 1,1 C 6,3 km/h (2 Bft)
_ Min-Zeit 01:05 14:40 04:25 - 17:45 - - 06:20 01:05 23:00
Minimum _ -2,8 C 32 % 1013,8 hPa - 0,0 km/h (0 Bft) - - -7,3 C -3,2 C 0,0 km/h (0 Bft)
_ Max-Zeit 14:35 01:25 23:55 23:55 15:35 - - 21:10 10:45 15:50
Maximum _ 12,4 C 80 % 1017,9 hPa 0,0 l/m 7,4 km/h
N-NO (2 Bft)
- - -1,3 C 15,6 C 14,6 km/h
N-NW (3 Bft)
Durchschnitt _ 4,2 C 57 % 1015,2 hPa #0,0 l/m 2,7 km/h (1 Bft) N-NW - -4,2 C 5,3 C 3,5 km/h (1 Bft)